Location: Karlsruhe
(49.0131°N, 8.3874°E)
Time: 16:24:25
(UTC+02:00)

ISS - Pass Details

Date: 21 May 2021
Orbit: 419 x 422 km, 51.6° (Epoch: 25 June)

Event Time Altitude Azimuth Distance (km) Brightness Sun altitude
Rises 00:23:25 0° 287° (WNW) 2,374 0.5 -19.5°
Reaches altitude 10° 00:25:32 10° 290° (WNW) 1,509 -0.5 -19.6°
Maximum altitude 00:28:54 67° 13° (NNE) 461 -3.5 -19.8°
Enters shadow 00:29:49 43° 80° (E) 601 -3.1 -19.8°
